Location: Lussas
(44.6119°N, 4.4726°E)
Time: 19:33:42
(UTC+00:00)

Okean 3 Rocket - Pass Details

Date: 26 November 2020
Orbit: 615 x 645 km, 82.5° (Epoch: 27 January)

Event Time Altitude Azimuth Distance (km) Brightness Sun altitude
Rises 05:33:33 0° 216° (SW) 2,872 6.8 -13.9°
Reaches altitude 10° 05:36:02 10° 228° (SW) 1,974 5.8 -13.5°
Maximum altitude 05:39:46 27° 287° (WNW) 1,191 4.4 -12.8°
Drops below altitude 10° 05:43:33 10° 346° (NNW) 1,996 5.9 -12.2°
Sets 05:46:05 0° 359° (N) 2,912 6.8 -11.8°
